Home   Weather   Portsmouth   Past weeks
Flag for United Kingdom

Past Weather in Portsmouth, England, United Kingdom — Yesterday and Last 2 Weeks

Now
46 °F

Passing clouds.


Feels Like: 46 °F
Forecast: 62 / 49 °F
Wind: 2 mph from West

Location: Odiham

Current Time: Apr 8, 2020 at 4:29:57 am

Latest Report: Apr 8, 2020 at 3:50 am


Visibility: N/A

Pressure: 30.27 "Hg

Humidity: 82%

Dew Point: 41 °F

Location of PortsmouthLocation

Past Weather in Portsmouth — Graph

°F

Portsmouth Temperature Yesterday

Maximum temperature yesterday: 64 °F (at 3:21 pm)
Minimum temperature yesterday: 37 °F (at 3:50 am)
Average temperature yesterday: 53 °F

High & Low Weather Summary for the Past Weeks

 TemperatureHumidityPressure
High68 °F (Apr 5, 2:50 pm)100% (Apr 1, 6:50 am)30.69 "Hg (Apr 1, 6:50 am)
Low27 °F (Mar 25, 3:50 am)25% (Mar 25, 3:20 pm)29.80 "Hg (Apr 5, 8:50 pm)
Average46 °F65%30.23 "Hg
* Reported Mar 24 1:50 am — Apr 8 2:50 am, Portsmouth. Weather by CustomWeather, © 2020

Note: Actual official high and low records may vary slightly from our data, if they occured in-between our weather recording intervals... More about our weather records

Portsmouth Weather History for the Previous 24 Hours

Scroll right to see more
 ConditionsComfort  
Time TempWeatherWind HumidityBarometerVisibility
2:50 am
Wed, Apr 8
46 °FPassing clouds.1 mph76%30.27 "HgN/A
1:50 am46 °FPassing clouds.1 mph76%30.30 "HgN/A
12:50 am46 °FPassing clouds.1 mph76%30.30 "HgN/A
11:50 pm
Tue, Apr 7
48 °FClear.3 mph71%30.30 "Hg10 mi
11:20 pm48 °FClear.1 mph71%30.30 "Hg10 mi
10:50 pm48 °FClear.1 mph76%30.33 "Hg10 mi
10:20 pm48 °FClear.No wind71%30.33 "Hg10 mi
9:50 pm52 °FClear.1 mph67%30.33 "Hg10 mi
9:20 pm52 °FClear.1 mph62%30.33 "Hg10 mi
8:20 pm54 °FClear.2 mph63%30.33 "Hg10 mi
7:50 pm55 °FClear.3 mph59%30.33 "Hg10 mi
7:20 pm57 °FSunny.6 mph59%30.30 "Hg10 mi
6:50 pm59 °FSunny.7 mph55%30.30 "Hg10 mi
6:20 pm61 °FSunny.8 mph52%30.30 "Hg10 mi
5:50 pm63 °FSunny.9 mph49%30.30 "Hg10 mi
5:21 pm63 °FSunny.5 mph45%30.30 "Hg10 mi
4:50 pm64 °FSunny.5 mph43%30.33 "Hg10 mi
4:20 pm64 °FSunny.6 mph43%30.33 "Hg10 mi
3:50 pm64 °FSunny.3 mph40%30.33 "Hg10 mi
3:21 pm64 °FSunny.7 mph40%30.33 "Hg10 mi
1:50 pm63 °FSunny.12 mph42%30.36 "Hg10 mi
1:20 pm63 °FSunny.12 mph42%30.36 "Hg10 mi
12:50 pm63 °FSunny.13 mph42%30.36 "Hg10 mi
12:20 pm61 °FScattered clouds.12 mph48%30.39 "HgN/A
11:50 am61 °FSunny.13 mph48%30.39 "Hg10 mi
11:20 am59 °FSunny.7 mph51%30.39 "Hg10 mi
10:50 am57 °FSunny.5 mph55%30.39 "Hg10 mi
9:50 am54 °FSunny.5 mph67%30.42 "Hg10 mi
8:50 am48 °FSunny.2 mph71%30.42 "Hg10 mi
7:50 am41 °FSunny.1 mph87%30.39 "Hg10 mi
6:50 am37 °FChilly.1 mph87%30.39 "HgN/A
5:50 am37 °FPassing clouds.2 mph87%30.39 "HgN/A
4:50 am39 °FChilly.3 mph87%30.39 "HgN/A
Weather by CustomWeather, © 2020

See weather overview

Advertising